Location: Newark
(49.8348°N, 24.0280°E)
Time: 18:52:48
(UTC+00:00)

Explorer 7 - Pass Details

Date: 27 January 2020
Orbit: 485 x 679 km, 50.3° (Epoch: 22 February)

Event Time Altitude Azimuth Distance (km) Brightness Sun altitude
Rises 21:07:59 0° 241° (WSW) 2,571 - -53.9°
Reaches altitude 10° 21:10:12 10° 238° (WSW) 1,677 - -54.1°
Maximum altitude 21:13:54 58° 159° (SSE) 571 - -54.5°
Drops below altitude 10° 21:17:36 10° 80° (E) 1,672 - -54.8°
Sets 21:19:48 0° 76° (ENE) 2,563 - -55.0°
